Zurück zum Katalog

ATLAS 5 CENTAUR DEB

AktivHEO
NORAD 43955·DEBRIS·🇺🇸 United States

Gestartet Sep 17, 2014 von Cape Canaveral Space Force Station

Loading…

Nächste Überflüge (nächste 24 Stunden)

TLE

AlterndSource: Space-Track

Epoche: Aug 27, 2026, 17:19 UTC

1 43955U 14055J   26239.72189753 -.00000133  00000-0  00000-0 0  9993
2 43955  21.1102  92.9876 4910426 253.8956  48.4042  1.93302292 56352

Verfolge ATLAS 5 CENTAUR DEB in Echtzeit mit AllMySat

Download on the App Store